Location: Hamburg
(53.5500°N, 10.0000°E)
Time: 16:56:56
(UTC+01:00)

A-11 Canister half - All Passes

Search period start: 23 November 2014 00:00
Search period end: 03 December 2014 00:00
Orbit: 1525 x 1685 km, 47.3° (Epoch: 23 November)

Date Brightness Start Highest point End Pass type
(mag) Time Alt. Az. Time Alt. Az. Time Alt. Az.
23 Nov - 00:22:45 10° SSE 00:27:08 14° SE 00:31:28 10° E visible
23 Nov - 02:21:02 10° SSW 02:29:56 37° SSE 02:38:38 10° E visible
23 Nov - 04:24:09 10° WSW 04:33:53 59° S 04:43:20 10° E visible
23 Nov - 06:28:39 10° W 06:38:14 56° SSW 06:47:28 10° ESE visible
23 Nov - 08:33:41 10° W 08:41:55 33° SW 08:49:56 10° SSE daylight
24 Nov - 00:01:49 10° SSE 00:05:42 13° SE 00:09:33 10° E visible
24 Nov - 01:59:36 10° SSW 02:08:26 36° SE 02:17:05 10° E visible
24 Nov - 04:02:37 10° WSW 04:12:21 58° S 04:21:49 10° E visible
24 Nov - 06:07:06 10° W 06:16:43 57° SSW 06:26:00 10° ESE visible
24 Nov - 08:12:05 10° W 08:20:27 34° SW 08:28:35 10° SSE daylight
24 Nov - 10:21:20 10° WSW 10:22:54 11° WSW 10:24:29 10° SW daylight
24 Nov - 23:40:59 10° SE 23:44:16 12° ESE 23:47:32 10° ESE night (unlit)
25 Nov - 01:38:11 10° SSW 01:46:56 35° SE 01:55:32 10° E visible
25 Nov - 03:41:05 10° WSW 03:50:50 58° SSE 04:00:18 10° E visible
25 Nov - 05:45:32 10° W 05:55:12 58° SSW 06:04:31 10° ESE visible
25 Nov - 07:50:30 10° W 07:58:59 35° SW 08:07:14 10° SSE daylight
25 Nov - 09:58:50 10° WSW 10:01:30 11° WSW 10:04:09 10° SW daylight
25 Nov - 23:20:20 10° SE 23:22:51 11° ESE 23:25:21 10° ESE night (unlit)
26 Nov - 01:16:47 10° SSW 01:25:27 34° SE 01:33:58 10° E visible
26 Nov - 03:19:33 10° WSW 03:29:18 57° SSE 03:38:47 10° E visible
26 Nov - 05:23:58 10° W 05:33:40 59° S 05:43:03 10° ESE visible
26 Nov - 07:28:54 10° W 07:37:31 36° SW 07:45:52 10° SSE daylight
26 Nov - 09:36:41 10° WSW 09:40:06 12° SW 09:43:29 10° SW daylight
26 Nov - 23:00:08 10° SE 23:01:25 10° ESE 23:02:42 10° ESE night (unlit)
27 Nov - 00:55:23 10° SSW 01:03:58 33° SE 01:12:24 10° E visible
27 Nov - 02:58:01 10° WSW 03:07:46 57° SSE 03:17:16 10° E visible
27 Nov - 05:02:25 10° W 05:12:09 59° S 05:21:34 10° ESE visible
27 Nov - 07:07:19 10° W 07:16:02 37° SSW 07:24:30 10° SSE visible
27 Nov - 09:14:41 10° W 09:18:41 13° SW 09:22:39 10° SSW daylight
28 Nov - 00:34:00 10° SSW 00:42:29 32° SE 00:50:50 10° E visible
28 Nov - 02:36:30 10° WSW 02:46:15 56° SSE 02:55:45 10° E visible
28 Nov - 04:40:51 10° W 04:50:37 60° S 05:00:04 10° ESE visible
28 Nov - 06:45:44 10° W 06:54:34 39° SSW 07:03:07 10° SSE visible
28 Nov - 08:52:47 10° W 08:57:16 14° SW 09:01:43 10° SSW daylight
29 Nov - 00:12:37 10° SSW 00:21:00 31° SE 00:29:16 10° E visible
29 Nov - 02:14:59 10° WSW 02:24:43 55° SSE 02:34:14 10° E visible
29 Nov - 04:19:17 10° W 04:29:05 60° S 04:38:35 10° ESE visible
29 Nov - 06:24:09 10° W 06:33:05 40° SSW 06:41:44 10° SSE visible
29 Nov - 08:30:55 10° W 08:35:51 15° SW 08:40:43 10° SSW daylight
29 Nov - 23:51:15 10° SSW 23:59:31 30° SE 00:07:41 10° E visible
30 Nov - 01:53:28 10° SW 02:03:11 54° SSE 02:12:42 10° E visible
30 Nov - 03:57:44 10° W 04:07:34 61° S 04:17:05 10° ESE visible
30 Nov - 06:02:34 10° W 06:11:35 41° SSW 06:20:20 10° SE visible
30 Nov - 08:09:07 10° W 08:14:26 16° SW 08:19:41 10° SSW daylight
30 Nov - 23:29:53 10° SSW 23:38:02 29° SE 23:46:05 10° E night (unlit)
01 Dec - 01:31:57 10° SW 01:41:40 53° SSE 01:51:10 10° E visible
01 Dec - 03:36:10 10° W 03:46:02 61° S 03:55:36 10° ESE visible
01 Dec - 05:41:00 10° W 05:50:06 42° SSW 05:58:55 10° SE visible
01 Dec - 07:47:20 10° W 07:53:01 17° SW 07:58:36 10° SSW daylight
01 Dec - 23:08:33 10° S 23:16:33 28° SE 23:24:30 10° E night (unlit)
02 Dec - 01:10:27 10° SW 01:20:08 53° SSE 01:29:39 10° E visible
02 Dec - 03:14:37 10° W 03:24:29 61° S 03:34:05 10° ESE visible
02 Dec - 05:19:25 10° W 05:28:36 43° SSW 05:37:31 10° SE visible
02 Dec - 07:25:35 10° W 07:31:35 18° SW 07:37:28 10° SSW visible
02 Dec - 22:47:13 10° S 22:55:05 27° SE 23:02:53 10° E night (unlit)
